Find Starlink 5163

NORAD ID: 54054 Int'l Des: 2022-136 Owner: SPXS Country: US Constellation: starlink operational
LEOCIRCULAR

实时位置

正在加载3D地球...

关于 Starlink 5163

正在加载描述...

即将过境

Passes for default location (London). Set your location on the main map for personalized predictions.

高度历史

Loading altitude history...

两行轨道根数

1 54054U 22136D 26125.06982708 .00000268 00000-0 34962-4 0 9992
2 54054 53.2177 91.1471 0001744 78.2178 281.9010 15.08833714195351
Epoch: May 5, 2026 • Age: 7 hours

当前状态

高度 558.6 km
速度 7.58 km/s
星下点 -50.89°S, 24.79°W
发射日期 Oct 20, 2022
运行时间 3.5 years
类型 internet

技术详情

分类 Payload
质量 305.00 kg
干质量 290.00 kg
总质量 305.00 kg
长度 0.20 m
直径 2.80 m
跨度 9.00 m
形状 Box + pan
制造商 SPXS
平台类型 Starlink
阶段状态 In Orbit
所有者/国家 SPXS/US

Most Searched